| time (UTC) | temp C | wind direction | speed KPH | gust KPH | rain 1hr cm | rain 24hr cm | rain mn cm | humidity % | barometer mb |
| 20260507204204 | 8 | 38 | 3.2 | 9.7 | 0.00 | 1.96 | 1.96 | 97 | 1016.4 |
| 20260507203704 | 8 | 19 | 3.2 | 11.3 | 0.00 | 1.96 | 1.96 | 97 | 1016.3 |
| 20260507203205 | 8 | 45 | 3.2 | 11.3 | 0.00 | 1.96 | 1.96 | 97 | 1016.2 |
| 20260507202704 | 8 | 338 | 3.2 | 11.3 | 0.00 | 1.96 | 1.96 | 97 | 1016.2 |
| 20260507202204 | 8 | 69 | 3.2 | 8.0 | 0.00 | 1.96 | 1.96 | 97 | 1016.1 |
| 20260507201204 | 8 | 68 | 3.2 | 8.0 | 0.00 | 1.96 | 1.96 | 97 | 1016.1 |
| 20260507200204 | 8 | 37 | 3.2 | 9.7 | 0.00 | 1.96 | 1.96 | 97 | 1016.0 |
| 20260507195704 | 8 | 44 | 3.2 | 9.7 | 0.00 | 1.96 | 1.96 | 97 | 1016.0 |
| 20260507195205 | 8 | 15 | 3.2 | 8.0 | 0.00 | 1.96 | 1.96 | 96 | 1016.0 |
| 20260507194704 | 8 | 32 | 3.2 | 8.0 | 0.00 | 1.96 | 1.96 | 96 | 1015.9 |
| 20260507193705 | 8 | 28 | 3.2 | 8.0 | 0.00 | 1.96 | 1.96 | 96 | 1015.8 |
| 20260507192704 | 8 | 55 | 3.2 | 8.0 | 0.00 | 1.96 | 1.96 | 96 | 1015.7 |
| 20260507192205 | 8 | 19 | 3.2 | 8.0 | 0.00 | 1.96 | 1.96 | 96 | 1015.5 |
| 20260507191204 | 8 | 38 | 1.6 | 9.7 | 0.00 | 1.96 | 1.96 | 96 | 1015.5 |
| 20260507190204 | 8 | 78 | 3.2 | 12.9 | 0.00 | 1.96 | 1.96 | 96 | 1015.3 |
| 20260507185704 | 8 | 41 | 3.2 | 11.3 | 0.00 | 1.96 | 1.96 | 96 | 1015.3 |
| 20260507185204 | 8 | 5 | 3.2 | 9.7 | 0.00 | 1.96 | 1.96 | 96 | 1015.2 |
| 20260507184704 | 8 | 32 | 4.8 | 9.7 | 0.00 | 1.96 | 1.96 | 96 | 1015.2 |
| 20260507184204 | 8 | 343 | 4.8 | 11.3 | 0.00 | 1.96 | 1.96 | 96 | 1015.1 |
| 20260507183705 | 8 | 22 | 4.8 | 11.3 | 0.00 | 1.96 | 1.96 | 96 | 1015.1 |
| 20260507183204 | 8 | 5 | 4.8 | 12.9 | 0.00 | 1.96 | 1.96 | 96 | 1015.0 |
| 20260507182204 | 8 | 67 | 4.8 | 12.9 | 0.00 | 1.96 | 1.96 | 96 | 1015.1 |
| 20260507181704 | 8 | 54 | 3.2 | 8.0 | 0.00 | 1.96 | 1.96 | 96 | 1015.0 |
| 20260507181204 | 8 | 43 | 1.6 | 9.7 | 0.00 | 1.96 | 1.96 | 96 | 1014.9 |
| 20260507180704 | 8 | 66 | 3.2 | 9.7 | 0.00 | 1.96 | 1.96 | 96 | 1014.8 |
| 20260507175704 | 9 | 57 | 3.2 | 9.7 | 0.00 | 1.96 | 1.96 | 96 | 1014.8 |
| 20260507175204 | 9 | 19 | 3.2 | 9.7 | 0.00 | 1.96 | 1.96 | 96 | 1014.7 |
| 20260507174705 | 9 | 19 | 4.8 | 11.3 | 0.00 | 1.96 | 1.96 | 96 | 1014.6 |
| 20260507174204 | 9 | 30 | 3.2 | 11.3 | 0.00 | 1.96 | 1.96 | 96 | 1014.6 |
| 20260507173704 | 9 | 5 | 3.2 | 11.3 | 0.00 | 1.96 | 1.96 | 96 | 1014.6 |
| 20260507171704 | 9 | 60 | 3.2 | 8.0 | 0.03 | 1.96 | 1.96 | 96 | 1014.4 |
| 20260507170704 | 9 | 92 | 1.6 | 9.7 | 0.03 | 1.96 | 1.96 | 96 | 1014.1 |
| 20260507165704 | 9 | 49 | 3.2 | 9.7 | 0.03 | 1.96 | 1.96 | 96 | 1014.2 |
| 20260507165203 | 9 | 42 | 3.2 | 9.7 | 0.03 | 1.96 | 1.96 | 96 | 1014.1 |
| 20260507164704 | 9 | 88 | 1.6 | 8.0 | 0.03 | 1.96 | 1.96 | 96 | 1014.2 |
| 20260507164204 | 9 | 93 | 1.6 | 8.0 | 0.03 | 1.96 | 1.96 | 96 | 1014.2 |
| 20260507163704 | 9 | 355 | 3.2 | 8.0 | 0.03 | 1.96 | 1.96 | 96 | 1014.1 |
| 20260507163204 | 9 | 66 | 3.2 | 8.0 | 0.03 | 1.93 | 1.93 | 96 | 1014.0 |
| 20260507162704 | 10 | 51 | 1.6 | 9.7 | 0.03 | 1.93 | 1.93 | 96 | 1013.9 |
| 20260507162204 | 10 | 55 | 3.2 | 9.7 | 0.03 | 1.93 | 1.93 | 96 | 1013.9 |
| 20260507161704 | 10 | 9 | 3.2 | 9.7 | 0.03 | 1.93 | 1.93 | 96 | 1013.9 |
| 20260507161204 | 10 | 15 | 3.2 | 9.7 | 0.03 | 1.93 | 1.93 | 96 | 1013.9 |
| 20260507160704 | 10 | 67 | 3.2 | 9.7 | 0.03 | 1.93 | 1.93 | 96 | 1014.0 |
| 20260507160204 | 10 | 68 | 3.2 | 9.7 | 0.03 | 1.93 | 1.93 | 96 | 1013.9 |
| 20260507155704 | 10 | 48 | 3.2 | 9.7 | 0.03 | 1.93 | 1.93 | 96 | 1014.0 |
| 20260507155204 | 10 | 35 | 3.2 | 9.7 | 0.03 | 1.93 | 1.93 | 96 | 1013.8 |
| 20260507154704 | 10 | 80 | 3.2 | 6.4 | 0.03 | 1.93 | 1.93 | 96 | 1013.8 |
| 20260507154204 | 10 | 24 | 3.2 | 6.4 | 0.03 | 1.93 | 1.93 | 96 | 1013.8 |
| 20260507153705 | 10 | 70 | 3.2 | 9.7 | 0.03 | 1.93 | 1.93 | 96 | 1013.6 |
| 20260507153204 | 10 | 69 | 4.8 | 9.7 | 0.00 | 1.93 | 1.93 | 96 | 1013.6 |
| 20260507152704 | 10 | 38 | 3.2 | 8.0 | 0.00 | 1.93 | 1.93 | 96 | 1013.6 |
| 20260507152205 | 10 | 46 | 1.6 | 8.0 | 0.00 | 1.93 | 1.93 | 96 | 1013.5 |
| 20260507151204 | 10 | 34 | 3.2 | 6.4 | 0.00 | 1.93 | 1.93 | 96 | 1013.5 |
| 20260507150704 | 10 | 106 | 3.2 | 8.0 | 0.00 | 1.93 | 1.93 | 96 | 1013.4 |
| 20260507150204 | 10 | 117 | 3.2 | 8.0 | 0.00 | 1.93 | 1.93 | 96 | 1013.4 |
| 20260507145704 | 10 | 50 | 3.2 | 8.0 | 0.00 | 1.93 | 1.93 | 96 | 1013.3 |
| 20260507145204 | 10 | 0 | 1.6 | 6.4 | 0.00 | 1.93 | 1.93 | 96 | 1013.4 |
| 20260507144704 | 10 | 43 | 1.6 | 8.0 | 0.00 | 1.93 | 1.93 | 96 | 1013.4 |
| 20260507144204 | 10 | 80 | 3.2 | 8.0 | 0.00 | 1.93 | 1.93 | 96 | 1013.4 |
| 20260507143704 | 10 | 46 | 3.2 | 8.0 | 0.00 | 1.93 | 1.93 | 96 | 1013.3 |
| 20260507143204 | 10 | 46 | 1.6 | 4.8 | 0.00 | 1.93 | 1.93 | 96 | 1013.3 |
| 20260507142704 | 10 | 53 | 1.6 | 6.4 | 0.00 | 1.93 | 1.93 | 96 | 1013.1 |
| 20260507142204 | 10 | 88 | 1.6 | 6.4 | 0.00 | 1.93 | 1.93 | 96 | 1013.1 |
| 20260507141707 | 10 | 78 | 1.6 | 6.4 | 0.00 | 1.93 | 1.93 | 96 | 1013.1 |
| 20260507141204 | 10 | 40 | 1.6 | 6.4 | 0.00 | 1.93 | 1.93 | 96 | 1013.3 |
| 20260507140704 | 10 | 47 | 1.6 | 6.4 | 0.00 | 1.93 | 1.93 | 96 | 1013.2 |
| 20260507135704 | 10 | 46 | 1.6 | 8.0 | 0.00 | 1.93 | 1.93 | 96 | 1013.1 |
| 20260507135204 | 10 | 83 | 1.6 | 8.0 | 0.00 | 1.93 | 1.93 | 96 | 1013.1 |
| 20260507134704 | 10 | 68 | 3.2 | 8.0 | 0.03 | 1.93 | 1.93 | 96 | 1013.1 |
| 20260507133704 | 10 | 46 | 3.2 | 8.0 | 0.03 | 1.93 | 1.93 | 96 | 1013.0 |
| 20260507133204 | 10 | 68 | 3.2 | 6.4 | 0.03 | 1.93 | 1.93 | 96 | 1012.9 |
| 20260507132704 | 10 | 36 | 1.6 | 6.4 | 0.05 | 1.93 | 1.93 | 96 | 1013.0 |
| 20260507132204 | 10 | 24 | 1.6 | 6.4 | 0.05 | 1.93 | 1.93 | 96 | 1013.0 |
| 20260507131704 | 10 | 0 | 3.2 | 8.0 | 0.08 | 1.93 | 1.93 | 96 | 1013.0 |
| 20260507131205 | 10 | 138 | 3.2 | 8.0 | 0.10 | 1.93 | 1.93 | 96 | 1012.9 |
| 20260507130704 | 10 | 94 | 3.2 | 8.0 | 0.15 | 1.93 | 1.93 | 96 | 1012.8 |
| 20260507130204 | 10 | 38 | 3.2 | 8.0 | 0.15 | 1.93 | 1.93 | 96 | 1012.8 |
| 20260507125704 | 10 | 0 | 3.2 | 8.0 | 0.18 | 1.93 | 1.93 | 96 | 1012.8 |
| 20260507125204 | 10 | 42 | 3.2 | 8.0 | 0.20 | 1.93 | 1.93 | 96 | 1012.7 |
| 20260507124705 | 10 | 67 | 3.2 | 8.0 | 0.20 | 1.91 | 1.91 | 96 | 1012.7 |
| 20260507122205 | 10 | 26 | 3.2 | 8.0 | 0.15 | 1.83 | 1.83 | 96 | 1012.4 |
| 20260507121707 | 10 | 67 | 3.2 | 8.0 | 0.15 | 1.83 | 1.83 | 96 | 1012.3 |
| 20260507121204 | 10 | 67 | 1.6 | 8.0 | 0.13 | 1.80 | 1.80 | 96 | 1012.4 |
| 20260507120704 | 10 | 100 | 1.6 | 4.8 | 0.10 | 1.78 | 1.78 | 96 | 1012.4 |
| 20260507120204 | 10 | 24 | 1.6 | 6.4 | 0.08 | 1.75 | 1.75 | 96 | 1012.5 |
| 20260507114704 | 10 | 40 | 1.6 | 8.0 | 0.03 | 1.70 | 1.70 | 96 | 1012.2 |
| 20260507114205 | 10 | 67 | 1.6 | 11.3 | 0.03 | 1.70 | 1.70 | 96 | 1012.2 |
| 20260507113704 | 10 | 76 | 3.2 | 11.3 | 0.03 | 1.70 | 1.70 | 96 | 1012.2 |
| 20260507113204 | 10 | 76 | 3.2 | 11.3 | 0.00 | 1.68 | 1.68 | 96 | 1012.0 |
| 20260507112704 | 10 | 132 | 1.6 | 8.0 | 0.00 | 1.68 | 1.68 | 96 | 1012.0 |
| 20260507110704 | 10 | 36 | 3.2 | 6.4 | 0.00 | 1.68 | 1.68 | 96 | 1011.9 |
| 20260507110204 | 10 | 94 | 1.6 | 6.4 | 0.03 | 1.68 | 1.68 | 96 | 1011.8 |
| 20260507105704 | 10 | 82 | 3.2 | 9.7 | 0.05 | 1.68 | 1.68 | 96 | 1011.7 |
| 20260507105204 | 10 | 76 | 3.2 | 9.7 | 0.05 | 1.68 | 1.68 | 96 | 1011.7 |
| 20260507104706 | 10 | 79 | 4.8 | 9.7 | 0.08 | 1.68 | 1.68 | 96 | 1011.7 |
| 20260507104204 | 10 | 107 | 3.2 | 9.7 | 0.10 | 1.68 | 1.68 | 96 | 1011.7 |
| 20260507103704 | 10 | 76 | 3.2 | 9.7 | 0.10 | 1.68 | 1.68 | 96 | 1011.7 |
| 20260507103205 | 10 | 112 | 4.8 | 9.7 | 0.10 | 1.68 | 1.68 | 96 | 1011.6 |
| 20260507102704 | 10 | 59 | 4.8 | 8.0 | 0.10 | 1.68 | 1.68 | 96 | 1011.5 |
| 20260507102204 | 10 | 88 | 3.2 | 8.0 | 0.10 | 1.68 | 1.68 | 96 | 1011.6 |
| 20260507101704 | 10 | 53 | 3.2 | 8.0 | 0.10 | 1.68 | 1.68 | 96 | 1011.5 |
| 20260507100204 | 10 | 74 | 3.2 | 4.8 | 0.08 | 1.65 | 1.65 | 96 | 1011.4 |
| 20260507095704 | 10 | 98 | 3.2 | 4.8 | 0.05 | 1.65 | 1.65 | 96 | 1011.3 |
| 20260507095204 | 10 | 96 | 1.6 | 6.4 | 0.05 | 1.63 | 1.63 | 96 | 1011.4 |
| 20260507094704 | 10 | 59 | 1.6 | 8.0 | 0.00 | 1.57 | 1.57 | 96 | 1011.3 |
| 20260507094204 | 10 | 32 | 3.2 | 8.0 | 0.00 | 1.57 | 1.57 | 96 | 1011.3 |
| 20260507093704 | 10 | 35 | 3.2 | 8.0 | 0.00 | 1.57 | 1.57 | 96 | 1011.3 |
| 20260507093204 | 10 | 69 | 3.2 | 8.0 | 0.00 | 1.57 | 1.57 | 96 | 1011.2 |
| 20260507092704 | 10 | 87 | 3.2 | 8.0 | 0.00 | 1.57 | 1.57 | 96 | 1011.1 |
| 20260507092205 | 10 | 81 | 3.2 | 6.4 | 0.00 | 1.57 | 1.57 | 96 | 1011.1 |
| 20260507091704 | 10 | 30 | 3.2 | 6.4 | 0.03 | 1.57 | 1.57 | 96 | 1011.1 |
| 20260507091204 | 10 | 53 | 1.6 | 8.0 | 0.05 | 1.57 | 1.57 | 96 | 1011.0 |
| 20260507090704 | 10 | 76 | 3.2 | 8.0 | 0.08 | 1.57 | 1.57 | 96 | 1011.0 |
| 20260507090205 | 10 | 30 | 3.2 | 8.0 | 0.13 | 1.57 | 1.57 | 96 | 1010.9 |
| 20260507085704 | 10 | 17 | 4.8 | 9.7 | 0.15 | 1.57 | 1.57 | 96 | 1010.9 |
| 20260507085204 | 10 | 102 | 4.8 | 9.7 | 0.15 | 1.57 | 1.57 | 96 | 1010.8 |
| 20260507084704 | 10 | 74 | 3.2 | 8.0 | 0.18 | 1.57 | 1.57 | 96 | 1010.8 |
| 20260507084204 | 11 | 11 | 3.2 | 8.0 | 0.20 | 1.57 | 1.57 | 96 | 1010.7 |
| 20260507083704 | 11 | 66 | 1.6 | 6.4 | 0.20 | 1.57 | 1.57 | 96 | 1010.7 |
| 20260507083205 | 10 | 61 | 1.6 | 6.4 | 0.20 | 1.57 | 1.57 | 96 | 1010.4 |
| 20260507082704 | 10 | 0 | 1.6 | 6.4 | 0.20 | 1.57 | 1.57 | 96 | 1010.4 |
| 20260507082204 | 10 | 72 | 1.6 | 8.0 | 0.20 | 1.57 | 1.57 | 96 | 1010.4 |
| 20260507081704 | 10 | 107 | 3.2 | 8.0 | 0.18 | 1.55 | 1.55 | 96 | 1010.3 |
| 20260507081204 | 10 | 89 | 3.2 | 8.0 | 0.15 | 1.52 | 1.52 | 96 | 1010.1 |
| 20260507080204 | 10 | 45 | 1.6 | 8.0 | 0.08 | 1.45 | 1.45 | 96 | 1010.1 |
| 20260507075204 | 10 | 326 | 3.2 | 9.7 | 0.03 | 1.40 | 1.40 | 96 | 1010.1 |
| 20260507074704 | 10 | 23 | 3.2 | 9.7 | 0.03 | 1.40 | 1.40 | 96 | 1010.1 |
| 20260507074204 | 10 | 5 | 3.2 | 8.0 | 0.00 | 1.37 | 1.37 | 96 | 1010.0 |
| 20260507073704 | 10 | 47 | 1.6 | 8.0 | 0.00 | 1.37 | 1.37 | 96 | 1010.0 |
| 20260507073204 | 10 | 78 | 1.6 | 8.0 | 0.00 | 1.37 | 1.37 | 96 | 1009.9 |
| 20260507072704 | 10 | 13 | 1.6 | 8.0 | 0.00 | 1.37 | 1.37 | 96 | 1009.8 |
| 20260507072204 | 10 | 38 | 3.2 | 8.0 | 0.00 | 1.37 | 1.37 | 96 | 1009.8 |
| 20260507071704 | 10 | 22 | 3.2 | 9.7 | 0.00 | 1.37 | 1.37 | 96 | 1009.8 |
| 20260507071204 | 10 | 0 | 4.8 | 9.7 | 0.00 | 1.37 | 1.37 | 96 | 1009.7 |
| 20260507070705 | 10 | 30 | 3.2 | 9.7 | 0.00 | 1.37 | 1.37 | 96 | 1009.6 |
| 20260507070204 | 10 | 61 | 3.2 | 9.7 | 0.00 | 1.37 | 1.37 | 96 | 1009.5 |
| 20260507065705 | 10 | 19 | 3.2 | 9.7 | 0.00 | 1.37 | 1.37 | 97 | 1009.5 |
| 20260507065204 | 10 | 31 | 3.2 | 8.0 | 0.00 | 1.37 | 1.37 | 97 | 1009.5 |
| 20260507064704 | 10 | 355 | 3.2 | 8.0 | 0.00 | 1.37 | 1.37 | 97 | 1009.5 |
| 20260507064204 | 10 | 22 | 1.6 | 4.8 | 0.00 | 1.37 | 1.37 | 96 | 1009.4 |
| 20260507063706 | 10 | 53 | 1.6 | 6.4 | 0.00 | 1.37 | 1.37 | 96 | 1009.4 |
| 20260507062704 | 10 | 74 | 3.2 | 8.0 | 0.00 | 1.37 | 1.37 | 96 | 1009.2 |
| 20260507062204 | 10 | 78 | 3.2 | 6.4 | 0.00 | 1.37 | 1.37 | 97 | 1009.2 |
| 20260507061704 | 10 | 20 | 3.2 | 8.0 | 0.00 | 1.37 | 1.37 | 97 | 1009.2 |
| 20260507060204 | 10 | 113 | 3.2 | 6.4 | 0.00 | 1.37 | 1.37 | 96 | 1008.9 |
| 20260507055704 | 10 | 99 | 4.8 | 8.0 | 0.00 | 1.37 | 1.37 | 96 | 1008.9 |
| 20260507055204 | 10 | 82 | 4.8 | 8.0 | 0.00 | 1.37 | 1.37 | 96 | 1009.1 |
| 20260507054705 | 10 | 101 | 3.2 | 8.0 | 0.00 | 1.37 | 1.37 | 96 | 1008.9 |
| 20260507054204 | 10 | 92 | 3.2 | 8.0 | 0.00 | 1.37 | 1.37 | 96 | 1008.8 |
| 20260507053704 | 10 | 86 | 3.2 | 8.0 | 0.00 | 1.37 | 1.37 | 96 | 1008.8 |
| 20260507053204 | 10 | 150 | 1.6 | 8.0 | 0.00 | 1.37 | 1.37 | 96 | 1008.8 |
| 20260507052704 | 10 | 123 | 0.0 | 3.2 | 0.03 | 1.37 | 1.37 | 96 | 1008.6 |
| 20260507051704 | 10 | 106 | 0.0 | 1.6 | 0.05 | 1.37 | 1.37 | 96 | 1008.6 |
| 20260507051205 | 10 | 173 | 0.0 | 4.8 | 0.10 | 1.37 | 1.37 | 96 | 1008.5 |
| 20260507050704 | 10 | 134 | 0.0 | 4.8 | 0.13 | 1.37 | 1.37 | 96 | 1008.5 |
| 20260507050204 | 10 | 200 | 1.6 | 4.8 | 0.15 | 1.37 | 1.37 | 96 | 1008.5 |
| 20260507045704 | 10 | 153 | 1.6 | 4.8 | 0.18 | 1.37 | 1.37 | 96 | 1008.3 |
| 20260507045205 | 10 | 150 | 0.0 | 4.8 | 0.20 | 1.37 | 1.37 | 96 | 1008.3 |
| 20260507044705 | 10 | 127 | 0.0 | 0.0 | 0.23 | 1.37 | 1.37 | 96 | 1008.3 |
| 20260507044205 | 10 | 169 | 0.0 | 3.2 | 0.23 | 1.37 | 1.37 | 96 | 1008.3 |
| 20260507043704 | 10 | 69 | 0.0 | 3.2 | 0.23 | 1.37 | 1.37 | 96 | 1008.4 |
| 20260507043204 | 10 | 54 | 0.0 | 3.2 | 0.28 | 1.37 | 1.37 | 96 | 1008.3 |
| 20260507042704 | 10 | 76 | 0.0 | 4.8 | 0.25 | 1.37 | 1.37 | 96 | 1008.3 |
| 20260507042204 | 10 | 24 | 0.0 | 4.8 | 0.23 | 1.32 | 1.32 | 96 | 1008.4 |
| 20260507041204 | 10 | 62 | 1.6 | 6.4 | 0.25 | 1.27 | 1.27 | 96 | 1008.2 |
| 20260507040704 | 10 | 17 | 1.6 | 6.4 | 0.28 | 1.27 | 1.27 | 96 | 1008.1 |
| 20260507040204 | 10 | 355 | 1.6 | 4.8 | 0.23 | 1.22 | 1.22 | 96 | 1008.1 |
| 20260507035705 | 10 | 19 | 1.6 | 4.8 | 0.23 | 1.17 | 1.17 | 96 | 1008.1 |
| 20260507034704 | 10 | 38 | 1.6 | 4.8 | 0.20 | 1.17 | 1.17 | 96 | 1008.2 |
| 20260507033204 | 10 | 34 | 1.6 | 6.4 | 0.15 | 1.09 | 1.09 | 95 | 1008.0 |
| 20260507032704 | 10 | 16 | 1.6 | 6.4 | 0.13 | 1.09 | 1.09 | 95 | 1008.0 |
| 20260507032203 | 10 | 26 | 1.6 | 8.0 | 0.10 | 1.07 | 1.07 | 95 | 1007.9 |
| 20260507031704 | 10 | 38 | 3.2 | 8.0 | 0.08 | 1.04 | 0.99 | 95 | 1007.9 |
| 20260507030704 | 10 | 76 | 1.6 | 4.8 | 0.03 | 0.99 | 0.99 | 95 | 1007.9 |
| 20260507030204 | 10 | 92 | 0.0 | 4.8 | 0.03 | 0.99 | 0.99 | 95 | 1007.9 |
| 20260507025704 | 10 | 54 | 1.6 | 3.2 | 0.00 | 0.97 | 0.97 | 95 | 1007.8 |
| 20260507024704 | 10 | 0 | 0.0 | 4.8 | 0.00 | 0.97 | 0.97 | 95 | 1007.7 |
| 20260507024204 | 10 | 36 | 1.6 | 4.8 | 0.03 | 0.97 | 0.97 | 95 | 1007.7 |
| 20260507023705 | 10 | 58 | 1.6 | 8.0 | 0.03 | 0.97 | 0.97 | 95 | 1007.6 |
| 20260507023204 | 10 | 23 | 1.6 | 9.7 | 0.03 | 0.97 | 0.97 | 95 | 1007.8 |
| 20260507022204 | 11 | 24 | 4.8 | 11.3 | 0.03 | 0.97 | 0.97 | 95 | 1007.7 |
| 20260507021704 | 11 | 50 | 3.2 | 14.5 | 0.03 | 0.97 | 0.97 | 95 | 1007.7 |
| 20260507021204 | 11 | 11 | 3.2 | 16.1 | 0.05 | 0.97 | 0.97 | 95 | 1007.6 |
| 20260507020704 | 11 | 350 | 6.4 | 16.1 | 0.05 | 0.97 | 0.97 | 94 | 1007.6 |
| 20260507020204 | 11 | 37 | 6.4 | 12.9 | 0.05 | 0.97 | 0.97 | 95 | 1007.6 |
| 20260507015704 | 11 | 16 | 4.8 | 9.7 | 0.05 | 0.97 | 0.97 | 95 | 1007.5 |
| 20260507015203 | 11 | 28 | 4.8 | 11.3 | 0.08 | 0.97 | 0.97 | 95 | 1007.7 |
| 20260507014704 | 11 | 46 | 4.8 | 11.3 | 0.10 | 0.94 | 0.94 | 95 | 1007.6 |
| 20260507013704 | 12 | 31 | 3.2 | 11.3 | 0.15 | 0.97 | 0.94 | 95 | 1007.5 |
| 20260507012704 | 12 | 316 | 3.2 | 8.0 | 0.30 | 0.97 | 0.94 | 95 | 1007.4 |
| 20260507012204 | 12 | 21 | 3.2 | 8.0 | 0.36 | 0.97 | 0.94 | 95 | 1007.1 |
| 20260507011707 | 12 | 247 | 3.2 | 6.4 | 0.43 | 0.97 | 0.94 | 95 | 1007.0 |
| 20260507011204 | 12 | 0 | 3.2 | 6.4 | 0.51 | 0.94 | 0.91 | 95 | 1007.0 |
| 20260507010704 | 12 | 36 | 3.2 | 6.4 | 0.66 | 0.94 | 0.91 | 95 | 1007.1 |
| 20260507010204 | 12 | 338 | 3.2 | 4.8 | 0.69 | 0.91 | 0.89 | 95 | 1007.0 |
| 20260507005704 | 12 | 311 | 1.6 | 4.8 | 0.71 | 0.91 | 0.89 | 95 | 1007.0 |
| 20260507005204 | 12 | 12 | 3.2 | 4.8 | 0.66 | 0.89 | 0.86 | 95 | 1007.0 |
| 20260507004704 | 12 | 290 | 3.2 | 4.8 | 0.64 | 0.84 | 0.81 | 94 | 1007.0 |
| 20260507004204 | 12 | 274 | 1.6 | 3.2 | 0.61 | 0.81 | 0.79 | 94 | 1007.0 |
| 20260507003704 | 12 | 276 | 1.6 | 4.8 | 0.56 | 0.79 | 0.74 | 94 | 1006.9 |
| 20260507003205 | 12 | 276 | 1.6 | 4.8 | 0.53 | 0.74 | 0.71 | 94 | 1006.8 |
| 20260507002204 | 12 | 311 | 1.6 | 9.7 | 0.38 | 0.61 | 0.53 | 94 | 1006.9 |
| 20260507001704 | 12 | 355 | 1.6 | 9.7 | 0.33 | 0.56 | 0.48 | 94 | 1006.7 |
| 20260507001204 | 12 | 23 | 3.2 | 9.7 | 0.18 | 0.43 | 0.33 | 94 | 1006.7 |
| 20260507000704 | 12 | 319 | 1.6 | 4.8 | 0.10 | 0.38 | 0.23 | 94 | 1006.7 |
| 20260507000205 | 12 | 329 | 1.6 | 4.8 | 0.05 | 0.33 | 0.23 | 93 | 1006.6 |
| 20260506235704 | 12 | 24 | 1.6 | 4.8 | 0.05 | 0.33 | 0.20 | 93 | 1006.7 |
| 20260506235204 | 12 | 34 | 1.6 | 4.8 | 0.05 | 0.36 | 0.20 | 93 | 1006.7 |
| 20260506234704 | 12 | 338 | 1.6 | 6.4 | 0.05 | 0.36 | 0.18 | 93 | 1006.6 |
| 20260506233204 | 13 | 19 | 1.6 | 4.8 | 0.10 | 0.43 | 0.15 | 93 | 1006.6 |
| 20260506232704 | 13 | 327 | 1.6 | 4.8 | 0.15 | 0.51 | 0.15 | 93 | 1006.6 |
| 20260506232205 | 13 | 330 | 1.6 | 4.8 | 0.15 | 0.53 | 0.15 | 92 | 1006.5 |
| 20260506231204 | 13 | 5 | 0.0 | 3.2 | 0.15 | 0.56 | 0.15 | 92 | 1006.5 |
| 20260506225704 | 13 | 56 | 0.0 | 4.8 | 0.15 | 0.61 | 0.15 | 91 | 1006.6 |
| 20260506225204 | 13 | 57 | 1.6 | 6.4 | 0.15 | 0.61 | 0.15 | 90 | 1006.5 |
| 20260506224204 | 13 | 43 | 1.6 | 6.4 | 0.10 | 0.64 | 0.10 | 90 | 1006.7 |
| 20260506223704 | 13 | 90 | 1.6 | 8.0 | 0.08 | 0.61 | 0.08 | 92 | 1006.7 |
| 20260506223204 | 13 | 77 | 1.6 | 8.0 | 0.05 | 0.61 | 0.05 | 89 | 1006.7 |
| 20260506222704 | 13 | 32 | 3.2 | 8.0 | 0.00 | 0.61 | 0.00 | 89 | 1006.7 |
| 20260506222204 | 13 | 17 | 1.6 | 8.0 | 0.00 | 0.66 | 0.00 | 89 | 1006.7 |
| 20260506221705 | 13 | 14 | 3.2 | 8.0 | 0.00 | 0.71 | 0.00 | 89 | 1006.8 |
| 20260506221204 | 13 | 42 | 3.2 | 6.4 | 0.00 | 0.71 | 0.00 | 89 | 1006.8 |
| 20260506220705 | 13 | 42 | 3.2 | 6.4 | 0.00 | 0.74 | 0.00 | 89 | 1006.7 |
| 20260506220204 | 13 | 355 | 3.2 | 6.4 | 0.00 | 0.76 | 0.76 | 89 | 1006.7 |
| 20260506215707 | 13 | 344 | 1.6 | 8.0 | 0.00 | 0.79 | 0.76 | 88 | 1006.7 |
| 20260506214704 | 13 | 53 | 3.2 | 8.0 | 0.00 | 0.79 | 0.76 | 88 | 1006.7 |
| 20260506214204 | 13 | 355 | 3.2 | 8.0 | 0.00 | 0.79 | 0.76 | 88 | 1006.7 |
| 20260506213704 | 13 | 15 | 3.2 | 8.0 | 0.00 | 0.79 | 0.76 | 88 | 1006.6 |
| 20260506213205 | 13 | 269 | 3.2 | 14.5 | 0.00 | 0.79 | 0.76 | 88 | 1006.5 |
| 20260506212704 | 13 | 10 | 3.2 | 14.5 | 0.00 | 0.79 | 0.76 | 88 | 1006.7 |
| 20260506212206 | 13 | 81 | 4.8 | 14.5 | 0.00 | 0.79 | 0.76 | 88 | 1006.6 |
| 20260506211204 | 14 | 121 | 4.8 | 11.3 | 0.00 | 0.79 | 0.76 | 88 | 1006.3 |
| 20260506210704 | 14 | 92 | 4.8 | 11.3 | 0.00 | 0.79 | 0.76 | 88 | 1006.4 |
| 20260506210204 | 14 | 62 | 3.2 | 8.0 | 0.00 | 0.79 | 0.76 | 88 | 1006.4 |
| 20260506205704 | 14 | 22 | 3.2 | 8.0 | 0.00 | 0.79 | 0.76 | 88 | 1006.3 |
| 20260506205204 | 14 | 69 | 3.2 | 6.4 | 0.00 | 0.79 | 0.76 | 88 | 1006.2 |
| 20260506204704 | 14 | 43 | 1.6 | 6.4 | 0.00 | 0.79 | 0.76 | 88 | 1006.3 |